User: anonymous   Login
Location: Caltech
(34.1382°N, 118.1253°W)
Time: 17:37:45
(UTC-08:00)
Language:

Cosmos 44 Rocket - Orbit

View from above orbital plane
View from above orbital plane
View from above satellite
View from above satellite

Ground track
Ground track

The orbit data is extracted from the following two-line orbital elements,

1 00877U 64053B   17349.51754314 -.00000092  00000-0  59366-5 0  9990
2 00877  65.0777 122.5559 0057245  26.1736 334.2236 14.59316296827975
Epoch (UTC): 15 December 2017 12:25:15
Eccentricity: 0.0057245
inclination: 65.0777°
perigee height: 655 km
apogee height: 736 km
right ascension of ascending node: 122.5559°
argument of perigee: 26.1736°
revolutions per day: 14.59316296
mean anomaly at epoch: 334.2236°
orbit number at epoch: 82797

The dashed part of the orbit path shows where the satellite is in the earth's shadow,  

DLR